contact:dominique.lefevre@mio.osupytheas.fr, maurice.libes@osupytheas.fr, didier.mallarino@osupytheas.fr
Project:EMSO http://www.emso-fr.org/EMSO-France
Depth: 2436.0 m
Title:EMSO Ligure Ouest : Data MII capteur MICROCAT
DateTime_Computer,Latitude,Longitude,Temperature,Conductivity,Pressure,DateTime_Instrument
DateTime_Computer,Latitude,Longitude,degC,S m-1,dbar,DateTime_Instrument
2020-05-11T00:02:45Z,42.805,6.029,13.3026,4.60039,2470.11,2020-5-11T02:03:26Z
2020-05-11T00:05:48Z,42.805,6.029,13.3033,4.60005,2470.124,2020-5-11T02:06:30Z
2020-05-11T00:08:51Z,42.805,6.029,13.3028,4.60038,2470.087,2020-5-11T02:09:33Z
2020-05-11T00:11:54Z,42.805,6.029,13.3030,4.60033,2470.1,2020-5-11T02:12:36Z
2020-05-11T00:14:58Z,42.805,6.029,13.3025,4.60045,2470.124,2020-5-11T02:15:39Z
2020-05-11T00:18:01Z,42.805,6.029,13.3039,4.60053,2470.124,2020-5-11T02:18:42Z
2020-05-11T00:21:04Z,42.805,6.029,13.3039,4.60026,2470.1,2020-5-11T02:21:46Z
2020-05-11T00:24:07Z,42.805,6.029,13.3042,4.60040,2470.124,2020-5-11T02:24:49Z
2020-05-11T00:27:11Z,42.805,6.029,13.3017,4.60006,2470.1,2020-5-11T02:27:52Z
2020-05-11T00:30:14Z,42.805,6.029,13.3027,4.59992,2470.124,2020-5-11T02:30:55Z
2020-05-11T00:33:17Z,42.805,6.029,13.3011,4.60011,2470.087,2020-5-11T02:33:59Z
2020-05-11T00:36:20Z,42.805,6.029,13.3036,4.60010,2470.063,2020-5-11T02:37:02Z
2020-05-11T00:39:23Z,42.805,6.029,13.3018,4.60014,2470.077,2020-5-11T02:40:05Z
2020-05-11T00:42:27Z,42.805,6.029,13.3025,4.60008,2470.11,2020-5-11T02:43:08Z
2020-05-11T00:45:30Z,42.805,6.029,13.3030,4.60011,2470.053,2020-5-11T02:46:12Z
2020-05-11T00:48:33Z,42.805,6.029,13.2996,4.60013,2470.077,2020-5-11T02:49:15Z
2020-05-11T00:51:37Z,42.805,6.029,13.3020,4.60002,2470.077,2020-5-11T02:52:18Z
2020-05-11T00:54:40Z,42.805,6.029,13.3004,4.60014,2470.11,2020-5-11T02:55:21Z
2020-05-11T00:57:43Z,42.805,6.029,13.3009,4.60013,2470.063,2020-5-11T02:58:25Z
2020-05-11T01:00:46Z,42.805,6.029,13.3005,4.60026,2470.063,2020-5-11T03:01:28Z
2020-05-11T01:03:50Z,42.805,6.029,13.2990,4.60011,2470.063,2020-5-11T03:04:31Z
2020-05-11T01:06:53Z,42.805,6.029,13.2984,4.60011,2470.1,2020-5-11T03:07:35Z
2020-05-11T01:09:56Z,42.805,6.029,13.3000,4.60004,2470.063,2020-5-11T03:10:38Z
2020-05-11T01:12:59Z,42.805,6.029,13.3008,4.60001,2470.063,2020-5-11T03:13:41Z
2020-05-11T01:16:03Z,42.805,6.029,13.2998,4.60014,2470.063,2020-5-11T03:16:44Z
2020-05-11T01:19:06Z,42.805,6.029,13.3002,4.60001,2470.077,2020-5-11T03:19:48Z
2020-05-11T01:22:09Z,42.805,6.029,13.3001,4.59996,2470.017,2020-5-11T03:22:51Z
2020-05-11T01:25:13Z,42.805,6.029,13.3001,4.60003,2470.017,2020-5-11T03:25:54Z
2020-05-11T01:28:16Z,42.805,6.029,13.2998,4.60011,2470.077,2020-5-11T03:28:58Z
2020-05-11T01:31:19Z,42.805,6.029,13.2999,4.60004,2470.063,2020-5-11T03:32:01Z
2020-05-11T01:34:22Z,42.805,6.029,13.2994,4.59997,2470.04,2020-5-11T03:35:04Z
2020-05-11T01:37:26Z,42.805,6.029,13.2998,4.60002,2470.017,2020-5-11T03:38:07Z
2020-05-11T01:40:29Z,42.805,6.029,13.3012,4.59995,2470.053,2020-5-11T03:41:11Z
2020-05-11T01:43:32Z,42.805,6.029,13.2993,4.60000,2470.053,2020-5-11T03:44:14Z
2020-05-11T01:46:35Z,42.805,6.029,13.2995,4.59992,2470.017,2020-5-11T03:47:17Z
2020-05-11T01:49:39Z,42.805,6.029,13.2988,4.59988,2470.03,2020-5-11T03:50:20Z
2020-05-11T01:52:42Z,42.805,6.029,13.2992,4.59995,2470.04,2020-5-11T03:53:23Z
2020-05-11T01:55:45Z,42.805,6.029,13.2986,4.60005,2470.04,2020-5-11T03:56:27Z
2020-05-11T01:58:48Z,42.805,6.029,13.2999,4.59996,2470.053,2020-5-11T03:59:30Z
2020-05-11T02:01:52Z,42.805,6.029,13.2984,4.60005,2470.03,2020-5-11T04:02:33Z
2020-05-11T02:04:55Z,42.805,6.029,13.2995,4.59996,2470.03,2020-5-11T04:05:36Z
2020-05-11T02:07:58Z,42.805,6.029,13.2986,4.59997,2470.007,2020-5-11T04:08:40Z
2020-05-11T02:11:01Z,42.805,6.029,13.2993,4.59996,2470.03,2020-5-11T04:11:43Z
2020-05-11T02:14:04Z,42.805,6.029,13.2987,4.59995,2470.053,2020-5-11T04:14:46Z
2020-05-11T02:17:08Z,42.805,6.029,13.2995,4.59993,2470.007,2020-5-11T04:17:49Z
2020-05-11T02:20:11Z,42.805,6.029,13.2992,4.59996,2469.984,2020-5-11T04:20:53Z
2020-05-11T02:23:14Z,42.805,6.029,13.3000,4.59996,2470.053,2020-5-11T04:23:56Z
2020-05-11T02:26:17Z,42.805,6.029,13.2992,4.59991,2470.017,2020-5-11T04:26:59Z
2020-05-11T02:29:21Z,42.805,6.029,13.3000,4.59996,2470.017,2020-5-11T04:30:02Z
2020-05-11T02:32:24Z,42.805,6.029,13.3000,4.59989,2470.053,2020-5-11T04:33:06Z
2020-05-11T02:35:27Z,42.805,6.029,13.3001,4.59991,2470.03,2020-5-11T04:36:09Z
2020-05-11T02:38:30Z,42.805,6.029,13.2998,4.59986,2470.053,2020-5-11T04:39:12Z
2020-05-11T02:41:34Z,42.805,6.029,13.2994,4.59995,2470.007,2020-5-11T04:42:15Z
2020-05-11T02:44:37Z,42.805,6.029,13.3001,4.59999,2469.993,2020-5-11T04:45:18Z
2020-05-11T02:47:40Z,42.805,6.029,13.2986,4.59996,2470.007,2020-5-11T04:48:22Z
2020-05-11T02:50:43Z,42.805,6.029,13.2993,4.60001,2470.007,2020-5-11T04:51:25Z
2020-05-11T02:53:47Z,42.805,6.029,13.2999,4.60000,2470.03,2020-5-11T04:54:28Z
2020-05-11T02:56:50Z,42.805,6.029,13.2987,4.59999,2470.04,2020-5-11T04:57:32Z
2020-05-11T02:59:53Z,42.805,6.029,13.2983,4.59983,2470.007,2020-5-11T05:00:35Z
2020-05-11T03:02:56Z,42.805,6.029,13.2991,4.59993,2470.017,2020-5-11T05:03:38Z
2020-05-11T03:06:00Z,42.805,6.029,13.2998,4.59999,2469.993,2020-5-11T05:06:41Z
2020-05-11T03:09:03Z,42.805,6.029,13.3000,4.59998,2469.993,2020-5-11T05:09:45Z
2020-05-11T03:12:06Z,42.805,6.029,13.2994,4.60005,2470.007,2020-5-11T05:12:48Z
2020-05-11T03:15:10Z,42.805,6.029,13.2989,4.59993,2469.993,2020-5-11T05:15:51Z
2020-05-11T03:18:13Z,42.805,6.029,13.3001,4.59986,2469.993,2020-5-11T05:18:55Z
2020-05-11T03:21:16Z,42.805,6.029,13.2996,4.60003,2470.017,2020-5-11T05:21:58Z
2020-05-11T03:24:19Z,42.805,6.029,13.3018,4.60003,2469.984,2020-5-11T05:25:01Z
2020-05-11T03:27:23Z,42.805,6.029,13.3011,4.59995,2469.97,2020-5-11T05:28:04Z
2020-05-11T03:30:26Z,42.805,6.029,13.2998,4.59994,2470.007,2020-5-11T05:31:07Z
2020-05-11T03:33:29Z,42.805,6.029,13.2992,4.59994,2470.007,2020-5-11T05:34:11Z
2020-05-11T03:36:32Z,42.805,6.029,13.2990,4.59998,2470.007,2020-5-11T05:37:14Z
2020-05-11T03:39:36Z,42.805,6.029,13.2988,4.59994,2470.007,2020-5-11T05:40:17Z
2020-05-11T03:42:39Z,42.805,6.029,13.2987,4.59991,2469.97,2020-5-11T05:43:21Z
2020-05-11T03:45:42Z,42.805,6.029,13.2991,4.59991,2469.97,2020-5-11T05:46:24Z
2020-05-11T03:48:46Z,42.805,6.029,13.2999,4.60001,2470.007,2020-5-11T05:49:27Z
2020-05-11T03:51:49Z,42.805,6.029,13.2997,4.59987,2469.993,2020-5-11T05:52:30Z
2020-05-11T03:54:52Z,42.805,6.029,13.2990,4.59995,2470.03,2020-5-11T05:55:34Z
2020-05-11T03:57:55Z,42.805,6.029,13.3000,4.59997,2469.97,2020-5-11T05:58:37Z
2020-05-11T04:00:59Z,42.805,6.029,13.2989,4.59994,2469.993,2020-5-11T06:01:40Z
2020-05-11T04:04:02Z,42.805,6.029,13.3015,4.59994,2469.97,2020-5-11T06:04:44Z
2020-05-11T04:07:05Z,42.805,6.029,13.2998,4.59994,2469.993,2020-5-11T06:07:47Z
2020-05-11T04:10:09Z,42.805,6.029,13.2983,4.59994,2469.97,2020-5-11T06:10:50Z
2020-05-11T04:13:12Z,42.805,6.029,13.2990,4.59991,2469.97,2020-5-11T06:13:54Z
2020-05-11T04:16:15Z,42.805,6.029,13.2998,4.59988,2469.97,2020-5-11T06:16:57Z
2020-05-11T04:19:18Z,42.805,6.029,13.2996,4.59996,2469.993,2020-5-11T06:20:00Z
2020-05-11T04:22:22Z,42.805,6.029,13.2988,4.59981,2469.984,2020-5-11T06:23:03Z
2020-05-11T04:25:25Z,42.805,6.029,13.2990,4.59994,2469.97,2020-5-11T06:26:07Z
2020-05-11T04:28:28Z,42.805,6.029,13.2997,4.59990,2469.97,2020-5-11T06:29:10Z
2020-05-11T04:31:32Z,42.805,6.029,13.2990,4.59997,2469.984,2020-5-11T06:32:13Z
2020-05-11T04:34:35Z,42.805,6.029,13.3014,4.59990,2469.947,2020-5-11T06:35:16Z
2020-05-11T04:37:38Z,42.805,6.029,13.2998,4.59990,2469.97,2020-5-11T06:38:20Z
2020-05-11T04:40:41Z,42.805,6.029,13.2991,4.59987,2469.97,2020-5-11T06:41:23Z
2020-05-11T04:43:45Z,42.805,6.029,13.2998,4.59991,2469.956,2020-5-11T06:44:26Z
2020-05-11T04:46:48Z,42.805,6.029,13.2986,4.59991,2469.984,2020-5-11T06:47:29Z
2020-05-11T04:49:51Z,42.805,6.029,13.3002,4.59997,2470.007,2020-5-11T06:50:33Z
2020-05-11T04:52:54Z,42.805,6.029,13.3009,4.59996,2469.947,2020-5-11T06:53:36Z
2020-05-11T04:55:58Z,42.805,6.029,13.2998,4.59995,2469.984,2020-5-11T06:56:39Z
2020-05-11T04:59:01Z,42.805,6.029,13.3001,4.59993,2469.984,2020-5-11T06:59:42Z
2020-05-11T05:02:04Z,42.805,6.029,13.3003,4.59994,2469.937,2020-5-11T07:02:46Z
2020-05-11T05:05:07Z,42.805,6.029,13.2992,4.59996,2469.947,2020-5-11T07:05:49Z
2020-05-11T05:08:11Z,42.805,6.029,13.3002,4.59986,2469.984,2020-5-11T07:08:52Z
2020-05-11T05:11:14Z,42.805,6.029,13.2998,4.59986,2469.96,2020-5-11T07:11:56Z
2020-05-11T05:14:17Z,42.805,6.029,13.2993,4.59989,2469.97,2020-5-11T07:14:59Z
2020-05-11T05:17:20Z,42.805,6.029,13.2997,4.59987,2469.97,2020-5-11T07:18:02Z
2020-05-11T05:20:24Z,42.805,6.029,13.3010,4.59999,2470.007,2020-5-11T07:21:05Z
2020-05-11T05:23:27Z,42.805,6.029,13.2996,4.59991,2470.007,2020-5-11T07:24:09Z
2020-05-11T05:26:30Z,42.805,6.029,13.2989,4.59999,2469.947,2020-5-11T07:27:12Z
2020-05-11T05:29:33Z,42.805,6.029,13.3002,4.60001,2469.947,2020-5-11T07:30:15Z
2020-05-11T05:32:37Z,42.805,6.029,13.3001,4.59996,2469.97,2020-5-11T07:33:18Z
2020-05-11T05:35:40Z,42.805,6.029,13.2996,4.59999,2469.97,2020-5-11T07:36:21Z
2020-05-11T05:38:43Z,42.805,6.029,13.3006,4.59994,2469.96,2020-5-11T07:39:25Z
2020-05-11T05:41:46Z,42.805,6.029,13.3011,4.60001,2469.97,2020-5-11T07:42:28Z
2020-05-11T05:44:50Z,42.805,6.029,13.3004,4.59990,2469.947,2020-5-11T07:45:31Z
2020-05-11T05:47:53Z,42.805,6.029,13.3007,4.59999,2469.947,2020-5-11T07:48:34Z
2020-05-11T05:50:56Z,42.805,6.029,13.3001,4.59999,2469.97,2020-5-11T07:51:38Z
2020-05-11T05:53:59Z,42.805,6.029,13.2999,4.59991,2469.96,2020-5-11T07:54:41Z
2020-05-11T05:57:02Z,42.805,6.029,13.2995,4.59989,2469.984,2020-5-11T07:57:44Z
2020-05-11T06:00:06Z,42.805,6.029,13.2998,4.59989,2469.97,2020-5-11T08:00:47Z
2020-05-11T06:03:09Z,42.805,6.029,13.2985,4.59994,2469.97,2020-5-11T08:03:50Z
2020-05-11T06:06:12Z,42.805,6.029,13.2996,4.59992,2469.993,2020-5-11T08:06:54Z
2020-05-11T06:09:15Z,42.805,6.029,13.3004,4.59987,2469.96,2020-5-11T08:09:57Z
2020-05-11T06:12:19Z,42.805,6.029,13.2995,4.59988,2469.97,2020-5-11T08:13:00Z
2020-05-11T06:15:22Z,42.805,6.029,13.2997,4.59993,2469.97,2020-5-11T08:16:03Z
2020-05-11T06:18:25Z,42.805,6.029,13.2985,4.59991,2469.984,2020-5-11T08:19:07Z
2020-05-11T06:21:28Z,42.805,6.029,13.3006,4.59990,2469.96,2020-5-11T08:22:10Z
2020-05-11T06:24:31Z,42.805,6.029,13.2991,4.59994,2470.007,2020-5-11T08:25:13Z
2020-05-11T06:27:35Z,42.805,6.029,13.3012,4.59994,2470.007,2020-5-11T08:28:16Z
2020-05-11T06:30:38Z,42.805,6.029,13.3004,4.59987,2469.993,2020-5-11T08:31:20Z
2020-05-11T06:33:41Z,42.805,6.029,13.2991,4.59991,2469.984,2020-5-11T08:34:23Z
2020-05-11T06:36:45Z,42.805,6.029,13.2997,4.59989,2469.97,2020-5-11T08:37:26Z
2020-05-11T06:39:48Z,42.805,6.029,13.2993,4.59991,2469.97,2020-5-11T08:40:29Z
2020-05-11T06:42:51Z,42.805,6.029,13.2994,4.59998,2469.97,2020-5-11T08:43:33Z
2020-05-11T06:45:54Z,42.805,6.029,13.2998,4.59987,2469.993,2020-5-11T08:46:36Z
2020-05-11T06:48:58Z,42.805,6.029,13.2988,4.59984,2470.007,2020-5-11T08:49:39Z
2020-05-11T06:52:01Z,42.805,6.029,13.2993,4.59991,2470.03,2020-5-11T08:52:42Z
2020-05-11T06:55:04Z,42.805,6.029,13.3004,4.59991,2469.97,2020-5-11T08:55:46Z
2020-05-11T06:58:07Z,42.805,6.029,13.2999,4.59986,2470.017,2020-5-11T08:58:49Z
2020-05-11T07:01:11Z,42.805,6.029,13.2992,4.59991,2470.017,2020-5-11T09:01:52Z
2020-05-11T07:04:14Z,42.805,6.029,13.2997,4.59993,2470.017,2020-5-11T09:04:55Z
2020-05-11T07:07:17Z,42.805,6.029,13.2995,4.59985,2470.007,2020-5-11T09:07:59Z
2020-05-11T07:10:21Z,42.805,6.029,13.2996,4.59997,2469.993,2020-5-11T09:11:02Z
2020-05-11T07:13:24Z,42.805,6.029,13.2991,4.59990,2470.007,2020-5-11T09:14:05Z
2020-05-11T07:16:27Z,42.805,6.029,13.2996,4.59988,2469.993,2020-5-11T09:17:09Z
2020-05-11T07:19:30Z,42.805,6.029,13.3002,4.59996,2470.04,2020-5-11T09:20:12Z
2020-05-11T07:22:34Z,42.805,6.029,13.2994,4.60014,2470.017,2020-5-11T09:23:15Z
2020-05-11T07:25:37Z,42.805,6.029,13.2988,4.59991,2470.04,2020-5-11T09:26:18Z
2020-05-11T07:28:40Z,42.805,6.029,13.2992,4.59991,2470.017,2020-5-11T09:29:22Z
2020-05-11T07:31:43Z,42.805,6.029,13.2988,4.59987,2470.04,2020-5-11T09:32:25Z
2020-05-11T07:34:47Z,42.805,6.029,13.2996,4.59987,2470.04,2020-5-11T09:35:28Z
2020-05-11T07:37:50Z,42.805,6.029,13.2986,4.59988,2470.007,2020-5-11T09:38:32Z
2020-05-11T07:40:54Z,42.805,6.029,13.2991,4.59991,2470.017,2020-5-11T09:41:35Z
2020-05-11T07:43:57Z,42.805,6.029,13.2992,4.59992,2469.993,2020-5-11T09:44:38Z
2020-05-11T07:47:00Z,42.805,6.029,13.2998,4.59986,2470.017,2020-5-11T09:47:42Z
2020-05-11T07:50:03Z,42.805,6.029,13.2993,4.59992,2470.04,2020-5-11T09:50:45Z
2020-05-11T07:53:06Z,42.805,6.029,13.3000,4.59987,2470.017,2020-5-11T09:53:48Z
2020-05-11T07:56:10Z,42.805,6.029,13.2989,4.59991,2470.04,2020-5-11T09:56:51Z
2020-05-11T07:59:13Z,42.805,6.029,13.3002,4.59992,2470.04,2020-5-11T09:59:55Z
2020-05-11T08:02:16Z,42.805,6.029,13.3000,4.59986,2470.04,2020-5-11T10:02:58Z
2020-05-11T08:05:20Z,42.805,6.029,13.2997,4.59992,2470.053,2020-5-11T10:06:01Z
2020-05-11T08:08:23Z,42.805,6.029,13.2996,4.59996,2470.04,2020-5-11T10:09:05Z
2020-05-11T08:11:26Z,42.805,6.029,13.2998,4.59991,2470.03,2020-5-11T10:12:08Z
2020-05-11T08:14:30Z,42.805,6.029,13.2991,4.59991,2470.03,2020-5-11T10:15:11Z
2020-05-11T08:17:33Z,42.805,6.029,13.2991,4.59991,2470.063,2020-5-11T10:18:14Z
2020-05-11T08:20:36Z,42.805,6.029,13.2994,4.59995,2470.077,2020-5-11T10:21:18Z
2020-05-11T08:23:39Z,42.805,6.029,13.3011,4.59993,2470.04,2020-5-11T10:24:21Z
2020-05-11T08:26:43Z,42.805,6.029,13.2988,4.59997,2470.053,2020-5-11T10:27:24Z
2020-05-11T08:29:46Z,42.805,6.029,13.2999,4.59991,2470.063,2020-5-11T10:30:27Z
2020-05-11T08:32:49Z,42.805,6.029,13.2995,4.59989,2470.03,2020-5-11T10:33:31Z
2020-05-11T08:35:52Z,42.805,6.029,13.2999,4.59989,2470.04,2020-5-11T10:36:34Z
2020-05-11T08:38:56Z,42.805,6.029,13.2996,4.59996,2470.063,2020-5-11T10:39:37Z
2020-05-11T08:41:59Z,42.805,6.029,13.3021,4.59988,2470.063,2020-5-11T10:42:40Z
2020-05-11T08:45:02Z,42.805,6.029,13.2993,4.59997,2470.04,2020-5-11T10:45:44Z
2020-05-11T08:48:05Z,42.805,6.029,13.2994,4.60003,2470.077,2020-5-11T10:48:47Z
2020-05-11T08:51:09Z,42.805,6.029,13.2996,4.59994,2470.063,2020-5-11T10:51:50Z
2020-05-11T08:54:12Z,42.805,6.029,13.2991,4.59988,2470.11,2020-5-11T10:54:53Z
2020-05-11T08:57:15Z,42.805,6.029,13.2994,4.59991,2470.04,2020-5-11T10:57:57Z
2020-05-11T09:00:18Z,42.805,6.029,13.2993,4.59984,2470.063,2020-5-11T11:01:00Z
2020-05-11T09:03:22Z,42.805,6.029,13.2994,4.59997,2470.04,2020-5-11T11:04:03Z
2020-05-11T09:06:25Z,42.805,6.029,13.2996,4.59995,2470.063,2020-5-11T11:07:06Z
2020-05-11T09:09:28Z,42.805,6.029,13.3005,4.59999,2470.04,2020-5-11T11:10:10Z
2020-05-11T09:12:31Z,42.805,6.029,13.2998,4.59996,2470.1,2020-5-11T11:13:13Z
2020-05-11T09:15:34Z,42.805,6.029,13.2996,4.59997,2470.077,2020-5-11T11:16:16Z
2020-05-11T09:18:38Z,42.805,6.029,13.3001,4.60000,2470.077,2020-5-11T11:19:19Z
2020-05-11T09:21:41Z,42.805,6.029,13.2996,4.59999,2470.04,2020-5-11T11:22:23Z
2020-05-11T09:24:44Z,42.805,6.029,13.2998,4.59994,2470.017,2020-5-11T11:25:26Z
2020-05-11T09:27:48Z,42.805,6.029,13.2995,4.59996,2470.1,2020-5-11T11:28:29Z
2020-05-11T09:30:51Z,42.805,6.029,13.2993,4.59994,2470.063,2020-5-11T11:31:32Z
2020-05-11T09:33:54Z,42.805,6.029,13.3008,4.59998,2470.063,2020-5-11T11:34:36Z
2020-05-11T09:36:57Z,42.805,6.029,13.2996,4.59995,2470.077,2020-5-11T11:37:39Z
2020-05-11T09:40:01Z,42.805,6.029,13.2995,4.59996,2470.063,2020-5-11T11:40:42Z
2020-05-11T09:43:04Z,42.805,6.029,13.3002,4.59990,2470.1,2020-5-11T11:43:45Z
2020-05-11T09:46:07Z,42.805,6.029,13.3013,4.59997,2470.04,2020-5-11T11:46:49Z
2020-05-11T09:49:10Z,42.805,6.029,13.2992,4.59999,2470.077,2020-5-11T11:49:52Z
2020-05-11T09:52:14Z,42.805,6.029,13.3008,4.59993,2470.053,2020-5-11T11:52:55Z
2020-05-11T09:55:17Z,42.805,6.029,13.2999,4.59992,2470.077,2020-5-11T11:55:58Z
2020-05-11T09:58:20Z,42.805,6.029,13.3020,4.59991,2470.087,2020-5-11T11:59:02Z
2020-05-11T10:01:23Z,42.805,6.029,13.3000,4.59989,2470.077,2020-5-11T12:02:05Z
2020-05-11T10:04:26Z,42.805,6.029,13.3004,4.59988,2470.04,2020-5-11T12:05:08Z
2020-05-11T10:07:30Z,42.805,6.029,13.2992,4.59993,2470.017,2020-5-11T12:08:11Z
2020-05-11T10:10:33Z,42.805,6.029,13.2998,4.59991,2470.063,2020-5-11T12:11:15Z
2020-05-11T10:13:36Z,42.805,6.029,13.2994,4.59999,2470.077,2020-5-11T12:14:18Z
2020-05-11T10:16:39Z,42.805,6.029,13.3004,4.59996,2470.04,2020-5-11T12:17:21Z
2020-05-11T10:19:43Z,42.805,6.029,13.3000,4.59999,2470.017,2020-5-11T12:20:24Z
2020-05-11T10:22:46Z,42.805,6.029,13.3015,4.59997,2470.077,2020-5-11T12:23:28Z
2020-05-11T10:25:49Z,42.805,6.029,13.3003,4.59998,2470.063,2020-5-11T12:26:31Z
2020-05-11T10:28:52Z,42.805,6.029,13.3025,4.59994,2470.077,2020-5-11T12:29:34Z
2020-05-11T10:31:56Z,42.805,6.029,13.3001,4.59992,2470.04,2020-5-11T12:32:37Z
2020-05-11T10:34:59Z,42.805,6.029,13.2996,4.59994,2470.053,2020-5-11T12:35:41Z
2020-05-11T10:38:02Z,42.805,6.029,13.2993,4.59994,2470.04,2020-5-11T12:38:44Z
2020-05-11T10:41:05Z,42.805,6.029,13.2994,4.59991,2470.04,2020-5-11T12:41:47Z
2020-05-11T10:44:09Z,42.805,6.029,13.2995,4.59991,2470.04,2020-5-11T12:44:50Z
2020-05-11T10:47:12Z,42.805,6.029,13.3015,4.60010,2470.03,2020-5-11T12:47:54Z
2020-05-11T10:50:15Z,42.805,6.029,13.2991,4.59991,2470.017,2020-5-11T12:50:57Z
2020-05-11T10:53:18Z,42.805,6.029,13.2999,4.59999,2470.017,2020-5-11T12:54:00Z
2020-05-11T10:56:22Z,42.805,6.029,13.2998,4.59997,2470.04,2020-5-11T12:57:03Z
2020-05-11T10:59:25Z,42.805,6.029,13.3004,4.60008,2470.03,2020-5-11T13:00:07Z
2020-05-11T11:02:28Z,42.805,6.029,13.3021,4.60007,2470.017,2020-5-11T13:03:10Z
2020-05-11T11:05:31Z,42.805,6.029,13.3004,4.59994,2470.007,2020-5-11T13:06:13Z
2020-05-11T11:08:35Z,42.805,6.029,13.3004,4.59998,2469.97,2020-5-11T13:09:16Z
2020-05-11T11:11:38Z,42.805,6.029,13.3002,4.59996,2470.04,2020-5-11T13:12:19Z
2020-05-11T11:14:41Z,42.805,6.029,13.2993,4.59994,2470.053,2020-5-11T13:15:23Z
2020-05-11T11:17:44Z,42.805,6.029,13.3011,4.60004,2469.993,2020-5-11T13:18:26Z
2020-05-11T11:20:48Z,42.805,6.029,13.2994,4.59999,2470.03,2020-5-11T13:21:29Z
2020-05-11T11:23:51Z,42.805,6.029,13.3011,4.59999,2470.03,2020-5-11T13:24:33Z
2020-05-11T11:26:54Z,42.805,6.029,13.3003,4.60012,2470.007,2020-5-11T13:27:36Z
2020-05-11T11:29:57Z,42.805,6.029,13.3000,4.60039,2470.053,2020-5-11T13:30:39Z
2020-05-11T11:33:00Z,42.805,6.029,13.2995,4.60009,2470.007,2020-5-11T13:33:42Z
2020-05-11T11:36:04Z,42.805,6.029,13.3000,4.60006,2470.053,2020-5-11T13:36:45Z
2020-05-11T11:39:07Z,42.805,6.029,13.2993,4.60006,2470.04,2020-5-11T13:39:49Z
2020-05-11T11:42:10Z,42.805,6.029,13.2982,4.60003,2470.007,2020-5-11T13:42:52Z
2020-05-11T11:45:14Z,42.805,6.029,13.2973,4.59992,2470.053,2020-5-11T13:45:55Z
2020-05-11T11:48:17Z,42.805,6.029,13.2975,4.59999,2469.993,2020-5-11T13:48:59Z
2020-05-11T11:51:20Z,42.805,6.029,13.2974,4.59992,2469.993,2020-5-11T13:52:02Z
2020-05-11T11:54:23Z,42.805,6.029,13.2968,4.59986,2469.993,2020-5-11T13:55:05Z
2020-05-11T11:57:27Z,42.805,6.029,13.2972,4.59987,2470.03,2020-5-11T13:58:08Z
2020-05-11T12:00:30Z,42.805,6.029,13.2974,4.59988,2469.993,2020-5-11T14:01:11Z
2020-05-11T12:03:33Z,42.805,6.029,13.2971,4.59986,2469.993,2020-5-11T14:04:15Z
2020-05-11T12:06:36Z,42.805,6.029,13.2969,4.59994,2469.97,2020-5-11T14:07:18Z
2020-05-11T12:09:40Z,42.805,6.029,13.2970,4.59984,2470.017,2020-5-11T14:10:21Z
2020-05-11T12:12:43Z,42.805,6.029,13.2973,4.59983,2470.03,2020-5-11T14:13:25Z
2020-05-11T12:15:46Z,42.805,6.029,13.3035,4.60004,2469.984,2020-5-11T14:16:28Z
2020-05-11T12:18:49Z,42.805,6.029,13.2976,4.60003,2470.03,2020-5-11T14:19:31Z
2020-05-11T12:21:53Z,42.805,6.029,13.2971,4.59992,2469.97,2020-5-11T14:22:34Z
2020-05-11T12:24:56Z,42.805,6.029,13.2989,4.59985,2470.03,2020-5-11T14:25:37Z
2020-05-11T12:27:59Z,42.805,6.029,13.2971,4.60000,2469.993,2020-5-11T14:28:41Z
2020-05-11T12:31:02Z,42.805,6.029,13.2975,4.60009,2470.017,2020-5-11T14:31:44Z
2020-05-11T12:34:06Z,42.805,6.029,13.2976,4.59994,2469.97,2020-5-11T14:34:47Z
2020-05-11T12:37:09Z,42.805,6.029,13.2973,4.60009,2470.007,2020-5-11T14:37:51Z
2020-05-11T12:40:12Z,42.805,6.029,13.2968,4.60009,2470.007,2020-5-11T14:40:54Z
2020-05-11T12:43:16Z,42.805,6.029,13.2973,4.59995,2469.993,2020-5-11T14:43:57Z
2020-05-11T12:46:19Z,42.805,6.029,13.2974,4.60002,2470.007,2020-5-11T14:47:00Z
2020-05-11T12:49:22Z,42.805,6.029,13.2972,4.60016,2469.993,2020-5-11T14:50:04Z
2020-05-11T12:52:26Z,42.805,6.029,13.3004,4.60012,2469.97,2020-5-11T14:53:07Z
2020-05-11T12:55:29Z,42.805,6.029,13.2984,4.59996,2469.97,2020-5-11T14:56:11Z
2020-05-11T12:58:32Z,42.805,6.029,13.2969,4.60003,2469.993,2020-5-11T14:59:14Z
2020-05-11T13:01:35Z,42.805,6.029,13.2972,4.59999,2470.007,2020-5-11T15:02:17Z
2020-05-11T13:04:39Z,42.805,6.029,13.2975,4.60000,2469.984,2020-5-11T15:05:20Z
2020-05-11T13:07:42Z,42.805,6.029,13.2983,4.60010,2469.97,2020-5-11T15:08:24Z
2020-05-11T13:10:45Z,42.805,6.029,13.2998,4.60022,2469.984,2020-5-11T15:11:27Z
2020-05-11T13:13:48Z,42.805,6.029,13.3013,4.60024,2469.947,2020-5-11T15:14:30Z
2020-05-11T13:16:52Z,42.805,6.029,13.3045,4.60020,2469.96,2020-5-11T15:17:33Z
2020-05-11T13:19:55Z,42.805,6.029,13.3012,4.60026,2469.947,2020-5-11T15:20:36Z
2020-05-11T13:22:58Z,42.805,6.029,13.3024,4.60052,2469.97,2020-5-11T15:23:40Z
2020-05-11T13:26:01Z,42.805,6.029,13.2999,4.60026,2469.947,2020-5-11T15:26:43Z
2020-05-11T13:29:05Z,42.805,6.029,13.3033,4.60026,2469.984,2020-5-11T15:29:46Z
2020-05-11T13:32:08Z,42.805,6.029,13.2983,4.60010,2469.993,2020-5-11T15:32:50Z
2020-05-11T13:35:11Z,42.805,6.029,13.3015,4.60032,2469.923,2020-5-11T15:35:53Z
2020-05-11T13:38:15Z,42.805,6.029,13.3026,4.60018,2469.984,2020-5-11T15:38:56Z
2020-05-11T13:41:18Z,42.805,6.029,13.3043,4.60007,2469.923,2020-5-11T15:42:00Z
2020-05-11T13:44:21Z,42.805,6.029,13.3043,4.60022,2469.937,2020-5-11T15:45:03Z
2020-05-11T13:47:24Z,42.805,6.029,13.3009,4.60013,2469.947,2020-5-11T15:48:06Z
2020-05-11T13:50:28Z,42.805,6.029,13.3022,4.60010,2469.96,2020-5-11T15:51:09Z
2020-05-11T13:53:31Z,42.805,6.029,13.2994,4.60000,2469.97,2020-5-11T15:54:13Z
2020-05-11T13:56:34Z,42.805,6.029,13.3029,4.60019,2469.984,2020-5-11T15:57:16Z
2020-05-11T13:59:37Z,42.805,6.029,13.3019,4.60015,2469.993,2020-5-11T16:00:19Z
2020-05-11T14:02:41Z,42.805,6.029,13.2996,4.60011,2469.96,2020-5-11T16:03:22Z
2020-05-11T14:05:44Z,42.805,6.029,13.3008,4.60016,2469.947,2020-5-11T16:06:26Z
2020-05-11T14:08:48Z,42.805,6.029,13.3024,4.60014,2469.947,2020-5-11T16:09:29Z
2020-05-11T14:11:51Z,42.805,6.029,13.3021,4.60003,2469.984,2020-5-11T16:12:33Z
2020-05-11T14:14:54Z,42.805,6.029,13.3014,4.59999,2469.96,2020-5-11T16:15:36Z
2020-05-11T14:17:58Z,42.805,6.029,13.3031,4.60021,2469.947,2020-5-11T16:18:39Z
2020-05-11T14:21:01Z,42.805,6.029,13.3023,4.60009,2469.96,2020-5-11T16:21:42Z
2020-05-11T14:24:04Z,42.805,6.029,13.3023,4.60003,2469.97,2020-5-11T16:24:46Z
2020-05-11T14:27:07Z,42.805,6.029,13.3014,4.59996,2469.96,2020-5-11T16:27:49Z
2020-05-11T14:30:11Z,42.805,6.029,13.3016,4.60021,2469.96,2020-5-11T16:30:52Z
2020-05-11T14:33:14Z,42.805,6.029,13.3012,4.60011,2469.96,2020-5-11T16:33:55Z
2020-05-11T14:36:17Z,42.805,6.029,13.3026,4.60003,2469.947,2020-5-11T16:36:59Z
2020-05-11T14:39:20Z,42.805,6.029,13.3024,4.60001,2469.97,2020-5-11T16:40:02Z
2020-05-11T14:42:24Z,42.805,6.029,13.3036,4.60000,2469.984,2020-5-11T16:43:05Z
2020-05-11T14:45:27Z,42.805,6.029,13.3026,4.60009,2469.947,2020-5-11T16:46:08Z
2020-05-11T14:48:30Z,42.805,6.029,13.3012,4.59999,2469.937,2020-5-11T16:49:12Z
2020-05-11T14:51:33Z,42.805,6.029,13.3017,4.60011,2469.947,2020-5-11T16:52:15Z
2020-05-11T14:54:36Z,42.805,6.029,13.3045,4.60016,2469.96,2020-5-11T16:55:18Z
2020-05-11T14:57:40Z,42.805,6.029,13.3041,4.60004,2469.947,2020-5-11T16:58:21Z
2020-05-11T15:00:43Z,42.805,6.029,13.3050,4.60001,2469.96,2020-5-11T17:01:25Z
2020-05-11T15:03:46Z,42.805,6.029,13.3011,4.60011,2469.947,2020-5-11T17:04:28Z
2020-05-11T15:06:50Z,42.805,6.029,13.3012,4.59999,2469.947,2020-5-11T17:07:31Z
2020-05-11T15:09:53Z,42.805,6.029,13.3014,4.60004,2469.923,2020-5-11T17:10:34Z
2020-05-11T15:12:56Z,42.805,6.029,13.3034,4.60015,2469.937,2020-5-11T17:13:38Z
2020-05-11T15:15:59Z,42.805,6.029,13.3027,4.60006,2469.914,2020-5-11T17:16:41Z